Погода в Лучках

Россия / Владимирская область     56°45′55″N   39°31′53″E
темп.,
°C
ветер,
м/с
пор.,
м/с
влажн.,
%
обл.,
%
осадки,
мм/ч
давл.,
гПа
погр.,
м
17 июня, чт
чт1700:00+13сз237982 0.0 101858
03:00+10сз23738 0.0 102146
06:00+13с3970100 0.0 1022302
09:00+17ссз484710 0.0 1023765
12:00+20с46435 0.0 10241401
15:00+22с3640100 0.0 10241997
18:00+21ссз25565 0.0 10241483
21:00+16зюз11765 0.0 102511
18 июня, пт
пт1800:00+14зюз22780 0.0 102629
03:00+12зюз22821 0.0 102714
06:00+15з23775 0.0 1027108
09:00+21з225935 0.0 1027510
12:00+24зюз23495 0.0 10271448
15:00+25юз34467 0.0 10261643
18:00+24юз345845 0.0 10251016
21:00+19юз34765 0.0 102544
19 июня, сб
сб1900:00+16зюз310835 0.0 1026184
03:00+15зюз310875 0.0 1026181
06:00+17зюз310814 0.0 1027298
09:00+22зюз5764100 0.0 1026565
12:00+26зюз565261 0.0 10261244
15:00+27юз46495 0.0 10241651
18:00+26зюз35590 0.0 10241017
21:00+19юз35805 0.0 102474
20 июня, вс
вс2000:00+17юз38885 0.0 1024143
03:00+16зюз36860 0.0 1025112
06:00+18зюз37820 0.0 1025181
09:00+23юз34655 0.0 1024575
12:00+25юз45545 0.0 10241077
15:00+27юз45455 0.0 10221314
18:00+26ююз36570 0.0 1021754
21:00+19ююз38790 0.0 1021145
21 июня, пн
пн2100:00+17юз310850 0.0 1021186
03:00+16юз368870 0.0 1021109
06:00+19зюз37816 0.0 1022200
09:00+24зюз35645 0.0 1021533
12:00+27юз34540 0.0 10211233
15:00+29юз454821 0.1 10202099
18:00+26ююз246997 0.1 1020116
21:00+23юз11696 0.1 102012